Location: Cran-Gévrier
(45.9039°N, 6.1012°E)
Time: 04:45:37
(UTC+00:00)

PCSat - Pass Details

Date: 05 December 2023
Orbit: 784 x 791 km, 67.0° (Epoch: 22 February)

Event Time Altitude Azimuth Distance (km) Brightness Sun altitude
Exits shadow 05:45:15 18° 295° (WNW) 1,882 10.9 -12.6°
Maximum altitude 05:47:10 21° 322° (NW) 1,721 10.8 -12.3°
Drops below altitude 10° 05:51:12 10° 11° (N) 2,361 11.9 -11.7°
Sets 05:54:14 0° 28° (NNE) 3,294 12.9 -11.2°
